Location: Unspecified
(0.0000°N, 0.0000°E)
Time: 17:20:53
(UTC+00:00)

Orbcomm D8 (FM36) - Pass Details

Date: 14 June 2023
Orbit: 773 x 779 km, 45.0° (Epoch: 26 September)

Event Time Altitude Azimuth Distance (km) Brightness Sun altitude
Exits shadow 03:49:41 60° 22° (NNE) 885 8.9 -29.7°
Drops below altitude 10° 03:54:10 10° 39° (NE) 2,322 11.8 -28.7°
Sets 03:56:37 0° 40° (NE) 3,248 12.8 -28.2°
